This is the latest recevied weather packets stored in our database for station/object K6JWN. If no packets are shown the sender has not sent any weather packets the latest 10 day(s).
| Time | Temp. | Humidity | Pressure | Rain* | Wind** | Luminosity | Snow |
|---|---|---|---|---|---|---|---|
| 1777662737 | 22.78° C | 51% | 1013.2 hPa | 0 mm | - | - | - |
| 1777662137 | 22.22° C | 48% | 1013.2 hPa | 0 mm | - | - | - |
| 1777661537 | 22.22° C | 49% | 1013.2 hPa | 0 mm | - | - | - |
| 1777660937 | 22.22° C | 51% | 1013.3 hPa | 0 mm | - | - | - |
| 1777660337 | 21.67° C | 48% | 1013.5 hPa | 0 mm | - | - | - |
| 1777659737 | 21.11° C | 49% | 1013.6 hPa | 0 mm | - | - | - |
| 1777659137 | 21.11° C | 48% | 1013.5 hPa | 0 mm | - | - | - |
| 1777658537 | 20.56° C | 49% | 1013.6 hPa | 0 mm | - | - | - |
| 1777657936 | 20.56° C | 49% | 1013.7 hPa | 0 mm | - | - | - |
| 1777657336 | 20.56° C | 50% | 1013.6 hPa | 0 mm | - | - | - |
| 1777656736 | 20° C | 49% | 1013.6 hPa | 0 mm | - | - | - |
| 1777656136 | 20° C | 50% | 1013.5 hPa | 0 mm | - | - | - |
| 1777655536 | 19.44° C | 50% | 1013.5 hPa | 0 mm | - | - | - |
| 1777654936 | 18.89° C | 52% | 1013.6 hPa | 0 mm | - | - | - |
| 1777654337 | 17.78° C | 54% | 1013.5 hPa | 0 mm | - | - | - |
| 1777653736 | 17.78° C | 54% | 1013.6 hPa | 0 mm | - | - | - |
| 1777653136 | 17.78° C | 53% | 1013.6 hPa | 0 mm | - | - | - |
| 1777652536 | 17.22° C | 55% | 1013.6 hPa | 0 mm | - | - | - |
| 1777651937 | 16.67° C | 56% | 1013.7 hPa | 0 mm | - | - | - |
| 1777651337 | 16.11° C | 58% | 1013.7 hPa | 0 mm | - | - | - |
| 1777650736 | 16.11° C | 58% | 1013.7 hPa | 0 mm | - | - | - |
| 1777650136 | 15.56° C | 59% | 1013.7 hPa | 0 mm | - | - | - |
| 1777649537 | 15° C | 60% | 1013.7 hPa | 0 mm | - | - | - |
| 1777648937 | 15° C | 60% | 1013.7 hPa | 0 mm | - | - | - |
| 1777648336 | 15° C | 60% | 1013.5 hPa | 0 mm | - | - | - |
* Rain latest hour (hover to see other rain measurements)
** Current wind speed in m/s (hover to see current wind gust speed)